CZ-6A DEB, 54440

Orbit data source: Space-Track

CZ-6A DEB, 54440 is space debris in SSO originally from a launch on Fri, 11 Nov 2022 UTC launched from the Taiyaun Space Center, China (TSC). Debris objects in space refer to the collection of defunct objects orbiting the Earth. Examples of debris include non-operational satellites, rocket bodies, and fragments generated from explosions, collisions, or faulty payload assembly.

Loading next visibility...
Identifier
54440, 2022-151FQ
Orbit
SSO
Country
Flag of CNCN / PRC
Related business
Manufacturer
SAST
Mission
Spacecraft
Bus & Motor
Unknown
Mass
Unknown
Launch date (UTC)
2022-11-11 (3 years ago)
Launch vehicle
Unknown
Launch site
Taiyaun Space Center, China (TSC)
Object type
Payload
Rocket body
Debris
Shape & HBR
Unknown shape, 0.1 m
Radar Cross Section
Small (<0.1 m²)

Expand to show TLE details & history
Last TLE update: 13 hours ago

TLE from 13 hours ago
0 CZ-6A DEB
1 54440U 22151FQ  26129.99372052  .00003127  00000-0  77808-3 0  9991
2 54440  98.4813 146.8714 0079055  80.1781 280.8328 14.50569935183396
Epoch: 2026-05-09T23:50Z
TLE epoch observation values (Epoch: 2026-05-09T23:50:57.452Z)
Latitude
-0.00004°
Longitude
-78.67116°
Altitude
716.627 km
Speed
7.503 km/s
True Right ascension
09h 47m 29s
True Declination
0° 00' 00"
Sunlit
Object was in daylight at epoch
Visualization orbit readout
Latitude
Unknown
Longitude
Unknown
Altitude
Unknown
Speed
Unknown
Apparent Right ascension
Unknown
Apparent Declination
Unknown
Sunlit
N/A
Visualization observer readout
Local Sidereal Time
21:25:01
Azimuth
Unknown
Elevation
Unknown
Doppler factor
Unknown
Orbital elements
Apogee altitude
777.016 km
Perigee altitude
664.773 km
Semi-major axis
7,099.031 km
Eccentricity
0.00791
Inclination
98.4813°
RAAN
146.8714°
Arg. of periapsis
80.1781°
True anomaly
279.94142°
Mean anomaly
280.8328°
Eccentric anomaly
280.38727°
Mean motion
3.62865 °/min
Orbital period
99.21 mins
BSTAR
0.00077808
Loading maneuver chart data...
Computing Atmospheric mass density...
Loading historical data...
Loading historical data...
Loading historical data...
Loading historical data...
Loading historical data...
Loading historical data...
Loading historical data...

Documentation

Showing up to 5 results
|